Time,TemperatureF,DewpointF,PressureIn,WindDirection,WindDirectionDegrees,WindSpeedMPH,WindSpeedGustMPH,Humidity,HourlyPrecipIn,Conditions,Clouds,dailyrainin,SolarRadiationWatts/m^2,SoftwareType,DateUTC
2013-11-27 00:02:00,39.0,39.0,-100.00,SE,138,1.0,2.0,100,-99.99,,,0.00,0.000000,,2013-11-27 08:02:00,
2013-11-27 00:11:00,39.0,39.0,-100.00,SE,138,1.0,2.0,100,-99.99,,,0.00,0.000000,,2013-11-27 08:11:00,
2013-11-27 00:52:00,38.0,38.0,-100.00,East,97,0.0,1.0,100,-99.99,,,0.00,0.000000,,2013-11-27 08:52:00,
2013-11-27 01:02:00,38.0,38.0,-100.00,East,97,0.0,1.0,100,-99.99,,,0.00,0.000000,,2013-11-27 09:02:00,
2013-11-27 01:11:00,38.0,38.0,-100.00,East,97,0.0,1.0,100,-99.99,,,0.00,0.000000,,2013-11-27 09:11:00,
2013-11-27 01:43:00,39.0,39.0,-100.00,ENE,69,1.0,2.0,100,-99.99,,,0.00,0.000000,,2013-11-27 09:43:00,
2013-11-27 01:54:00,39.0,39.0,-100.00,ENE,69,1.0,2.0,100,-99.99,,,0.00,0.000000,,2013-11-27 09:54:00,
2013-11-27 02:03:00,39.0,39.0,-100.00,ENE,69,1.0,2.0,100,-99.99,,,0.00,0.000000,,2013-11-27 10:03:00,
2013-11-27 02:12:00,39.0,39.0,-100.00,ENE,69,1.0,2.0,100,-99.99,,,0.00,0.000000,,2013-11-27 10:12:00,
2013-11-27 02:53:00,40.0,40.0,-100.00,ENE,75,1.0,3.0,100,-99.99,,,0.00,0.000000,,2013-11-27 10:53:00,
2013-11-27 03:02:00,40.0,40.0,-100.00,ENE,75,1.0,3.0,100,-99.99,,,0.00,0.000000,,2013-11-27 11:02:00,
2013-11-27 03:12:00,40.0,40.0,-100.00,ENE,75,1.0,3.0,100,-99.99,,,0.00,0.000000,,2013-11-27 11:12:00,
2013-11-27 03:53:00,37.0,37.0,-100.00,East,79,1.0,2.0,100,-99.99,,,0.00,0.000000,,2013-11-27 11:53:00,
2013-11-27 04:02:00,37.0,37.0,-100.00,East,79,1.0,2.0,100,-99.99,,,0.00,0.000000,,2013-11-27 12:02:00,
2013-11-27 04:11:00,37.0,37.0,-100.00,East,79,1.0,2.0,100,-99.99,,,0.00,0.000000,,2013-11-27 12:11:00,
2013-11-27 04:52:00,36.0,36.0,-100.00,ENE,78,0.0,1.0,100,-99.99,,,0.00,0.000000,,2013-11-27 12:52:00,
2013-11-27 05:02:00,36.0,36.0,-100.00,ENE,78,0.0,1.0,100,-99.99,,,0.00,0.000000,,2013-11-27 13:02:00,
2013-11-27 05:11:00,36.0,36.0,-100.00,ENE,78,0.0,1.0,100,-99.99,,,0.00,0.000000,,2013-11-27 13:11:00,
2013-11-27 05:52:00,37.0,37.0,-100.00,ENE,77,1.0,3.0,100,-99.99,,,0.00,0.000000,,2013-11-27 13:52:00,
2013-11-27 06:02:00,37.0,37.0,-100.00,ENE,77,1.0,3.0,100,-99.99,,,0.00,0.000000,,2013-11-27 14:02:00,
2013-11-27 06:11:00,37.0,37.0,-100.00,ENE,77,1.0,3.0,100,-99.99,,,0.00,0.000000,,2013-11-27 14:11:00,
2013-11-27 06:53:00,40.0,40.0,-100.00,ENE,77,1.0,2.0,99,-99.99,,,0.00,0.000000,,2013-11-27 14:53:00,
2013-11-27 07:02:00,40.0,40.0,-100.00,ENE,77,1.0,2.0,99,-99.99,,,0.00,0.000000,,2013-11-27 15:02:00,
2013-11-27 07:11:00,40.0,40.0,-100.00,ENE,77,1.0,2.0,99,-99.99,,,0.00,0.000000,,2013-11-27 15:11:00,
2013-11-27 07:53:00,36.0,36.0,-100.00,SE,125,1.0,2.0,100,-99.99,,,0.00,0.000000,,2013-11-27 15:53:00,
2013-11-27 08:04:00,36.0,36.0,-100.00,SE,125,1.0,2.0,100,-99.99,,,0.00,0.000000,,2013-11-27 16:04:00,
2013-11-27 08:13:00,36.0,36.0,-100.00,SE,125,1.0,2.0,100,-99.99,,,0.00,0.000000,,2013-11-27 16:13:00,
2013-11-27 08:53:00,35.0,35.0,-100.00,East,86,1.0,2.0,100,-99.99,,,0.00,0.460000,,2013-11-27 16:53:00,
2013-11-27 09:02:00,35.0,35.0,-100.00,East,86,1.0,2.0,100,-99.99,,,0.00,0.460000,,2013-11-27 17:02:00,
2013-11-27 09:12:00,35.0,35.0,-100.00,East,86,1.0,2.0,100,-99.99,,,0.00,0.460000,,2013-11-27 17:12:00,
2013-11-27 09:52:00,37.0,37.0,-100.00,East,81,1.0,3.0,100,-99.99,,,0.00,26.610001,,2013-11-27 17:52:00,
2013-11-27 10:02:00,37.0,37.0,-100.00,East,81,1.0,3.0,100,-99.99,,,0.00,26.610001,,2013-11-27 18:02:00,
2013-11-27 10:12:00,37.0,37.0,-100.00,East,81,1.0,3.0,100,-99.99,,,0.00,26.610001,,2013-11-27 18:12:00,
2013-11-27 11:00:00,51.0,50.0,-100.00,ENE,72,0.0,1.0,97,-99.99,,,0.00,136.789993,,2013-11-27 19:00:00,
2013-11-27 11:52:00,51.0,50.0,-100.00,ENE,72,0.0,1.0,97,-99.99,,,0.00,136.789993,,2013-11-27 19:52:00,
2013-11-27 12:22:00,56.0,47.0,-100.00,NE,46,2.0,5.0,71,-99.99,,,-99.99,306.010010,,2013-11-27 20:22:00,
2013-11-27 12:32:00,56.0,47.0,-100.00,NE,46,2.0,5.0,71,-99.99,,,-99.99,306.010010,,2013-11-27 20:32:00,
2013-11-27 12:42:00,56.0,47.0,-100.00,NE,46,2.0,5.0,71,-99.99,,,-99.99,306.010010,,2013-11-27 20:42:00,
2013-11-27 13:43:00,62.0,39.0,-100.00,North,8,3.0,5.0,43,-99.99,,,-99.99,434.899994,,2013-11-27 21:43:00,
2013-11-27 15:22:00,62.0,38.0,-100.00,North,354,2.0,7.0,40,-99.99,,,-99.99,220.000000,,2013-11-27 23:22:00,
2013-11-27 15:33:00,62.0,38.0,-100.00,North,354,2.0,7.0,40,-99.99,,,-99.99,220.000000,,2013-11-27 23:33:00,
2013-11-27 15:42:00,62.0,38.0,-100.00,North,354,2.0,7.0,40,-99.99,,,-99.99,220.000000,,2013-11-27 23:42:00,
2013-11-27 19:21:00,47.0,42.0,-100.00,ENE,77,2.0,3.0,81,-99.99,,,-99.99,0.000000,,2013-11-28 03:21:00,
2013-11-27 19:33:00,47.0,42.0,-100.00,ENE,77,2.0,3.0,81,-99.99,,,-99.99,0.000000,,2013-11-28 03:33:00,
2013-11-27 19:44:00,47.0,42.0,-100.00,ENE,77,2.0,3.0,81,-99.99,,,-99.99,0.000000,,2013-11-28 03:44:00,
2013-11-27 20:23:00,45.0,44.0,-100.00,North,359,1.0,2.0,93,-99.99,,,-99.99,0.000000,,2013-11-28 04:23:00,
2013-11-27 20:33:00,45.0,44.0,-100.00,North,359,1.0,2.0,93,-99.99,,,-99.99,0.000000,,2013-11-28 04:33:00,
2013-11-27 20:42:00,45.0,44.0,-100.00,North,359,1.0,2.0,93,-99.99,,,-99.99,0.000000,,2013-11-28 04:42:00,
2013-11-27 21:22:00,45.0,44.0,-100.00,ESE,114,0.0,1.0,94,-99.99,,,-99.99,0.000000,,2013-11-28 05:22:00,
2013-11-27 21:33:00,45.0,44.0,-100.00,ESE,114,0.0,1.0,94,-99.99,,,-99.99,0.000000,,2013-11-28 05:33:00,
2013-11-27 21:43:00,45.0,44.0,-100.00,ESE,114,0.0,1.0,94,-99.99,,,-99.99,0.000000,,2013-11-28 05:43:00,
2013-11-27 22:22:00,42.0,41.0,-100.00,SSE,167,0.0,1.0,98,-99.99,,,-99.99,0.000000,,2013-11-28 06:22:00,
2013-11-27 22:33:00,42.0,41.0,-100.00,SSE,167,0.0,1.0,98,-99.99,,,-99.99,0.000000,,2013-11-28 06:33:00,
2013-11-27 22:42:00,42.0,41.0,-100.00,SSE,167,0.0,1.0,98,-99.99,,,-99.99,0.000000,,2013-11-28 06:42:00,
2013-11-27 23:11:00,40.0,40.0,-100.00,ESE,114,0.0,1.0,100,-99.99,,,-99.99,0.000000,,2013-11-28 07:11:00,
2013-11-27 23:21:00,40.0,40.0,-100.00,ESE,114,0.0,1.0,100,-99.99,,,-99.99,0.000000,,2013-11-28 07:21:00,
2013-11-27 23:32:00,40.0,40.0,-100.00,ESE,114,0.0,1.0,100,-99.99,,,-99.99,0.000000,,2013-11-28 07:32:00,
2013-11-27 23:41:00,40.0,40.0,-100.00,ESE,114,0.0,1.0,100,-99.99,,,-99.99,0.000000,,2013-11-28 07:41:00,